Showing default

CONNECTA IOT-14, 67401

Orbit data source: Space-Track

CONNECTA IOT-14, 67401 is a payload satellite owned by Plan-S (TR) in SSO that was launched on Sun, 11 Jan 2026 UTC via an FALCON 9 launch vehicle from the Air Force Western Test Range (AFWTR). Payload-class satellites include a variety of spacecraft equipped with specific instruments for various scientific and technological missions. These include communications satellites like Starlink; space stations such as the ISS; scientific satellites like the Hubble; Earth observation satellites from companies like Planet Labs, Umbra, and HawkEye 360; GPS; miniature CubeSats for education and research; and military/defense satellites.

Loading next visibility...
Identifier
67401, 2026-004AQ
Orbit
SSO
Country
Flag of TRTR / TURK
Related business
Manufacturer
Plan-S
Mission
Operational Commercial Communications
Bus & Motor
CUBESAT 6U, Unknown motor
Mass
10 kg wet, 10 kg dry
Launch date (UTC)
2026-01-11 (4 months ago)
Launch vehicle
FALCON 9
Launch site
Air Force Western Test Range (AFWTR)
Object type
Payload
Rocket body
Debris
Shape & HBR
Box, 2.2 m
Radar Cross Section
0.080 m²

Expand to show TLE details & history
Last TLE update: 10 hours ago

TLE from 10 hours ago
0 CONNECTA IOT-14
1 67401U 26004AQ  26146.52557462  .00003072  00000-0  15258-3 0  9991
2 67401  97.4504 145.8724 0011313  61.3813 298.8558 15.18371151 20472
Epoch: 2026-05-26T12:36Z
TLE epoch observation values (Epoch: 2026-05-26T12:36:49.647Z)
Latitude
0.00003°
Longitude
72.56778°
Altitude
510.095 km
Speed
7.611 km/s
True Right ascension
09h 43m 29s
True Declination
0° 00' 00"
Sunlit
Object was in daylight at epoch
Visualization orbit readout
Latitude
Unknown
Longitude
Unknown
Altitude
Unknown
Speed
Unknown
Apparent Right ascension
Unknown
Apparent Declination
Unknown
Sunlit
N/A
Visualization observer readout
Local Sidereal Time
07:57:57
Azimuth
Unknown
Elevation
Unknown
Doppler factor
Unknown
Orbital elements
Apogee altitude
515.523 km
Perigee altitude
499.943 km
Semi-major axis
6,885.87 km
Eccentricity
0.00113
Inclination
97.4504°
RAAN
145.8724°
Arg. of periapsis
61.3813°
True anomaly
298.74218°
Mean anomaly
298.8558°
Eccentric anomaly
298.799°
Mean motion
3.79844 °/min
Orbital period
94.78 mins
BSTAR
0.00015258
Loading maneuver chart data...
Computing Atmospheric mass density...
Loading historical data...
Loading historical data...
Loading historical data...
Loading historical data...
Loading historical data...
Loading historical data...
Loading historical data...

Documentation

Showing up to 5 results
|